RH
27 22 16 13 12 13 14 16 19 18 16 13 9 5 6 11 13 24 24 17 17 16 20 17 18 13 12 11 12 10 10 8 8 9 11 9 10 10 10 10 10 10 11 12 17
24 17 13 16 21 26 25 24 22 20 18 16 14 11 6 6 11 21 18 19 18 15 18 15 14 14 12 11 11 10 11 9 9 9 9 9 9 8 8 7 9 9 12 13 12
20 14 16 27 33 32 29 26 23 21 20 18 16 14 11 5 16 24 17 18 18 14 19 14 12 12 11 10 10 10 12 9 9 10 10 10 10 9 8 8 7 11 12 13 12
16 19 35 39 35 32 29 26 23 22 21 21 19 16 13 18 15 17 12 12 10 13 15 13 12 11 11 10 9 11 9 8 8 10 10 10 10 8 8 7 11 11 10 10 10
15 37 45 38 34 32 28 26 24 23 22 19 17 16 13 17 15 18 15 13 11 14 13 13 11 11 12 10 8 9 9 10 11 9 8 8 8 9 8 7 11 10 9 9 9
19 51 41 35 30 27 24 24 23 22 19 18 17 16 21 17 20 21 22 22 18 16 15 12 11 11 11 9 11 10 10 11 9 8 7 8 10 9 8 7 9 10 10 9 8
30 53 42 35 28 25 22 20 19 18 18 16 13 14 21 19 20 21 20 22 19 18 17 15 13 14 12 12 10 10 11 9 8 7 7 8 9 8 8 8 8 10 10 10 10
41 53 42 36 31 28 25 23 19 13 12 12 12 12 20 18 16 20 16 21 18 19 18 18 17 16 16 14 12 13 12 13 8 6 7 8 12 9 10 12 12 10 10 11 11
54 49 42 37 33 28 25 24 21 14 11 8 13 25 15 17 18 18 16 19 18 17 17 18 16 16 15 15 15 13 17 17 15 11 11 12 15 11 12 12 12 12 11 12 12
50 45 41 36 31 28 26 22 17 15 14 17 22 19 16 15 16 15 15 18 15 14 16 16 16 16 14 15 22 22 21 18 15 12 11 13 14 12 11 9 9 10 11 17 21
51 44 35 29 24 22 20 18 21 31 21 18 16 16 13 15 13 11 16 16 13 12 16 14 17 17 17 16 15 14 14 15 12 10 11 13 13 11 9 9 9 14 19 21 23
50 38 29 25 20 15 14 32 30 28 27 20 16 15 18 17 15 12 16 15 10 12 9 14 16 14 14 14 13 11 13 13 11 11 14 13 12 10 8 10 17 18 20 23 24
49 39 31 22 12 12 13 14 11 19 30 16 16 15 16 15 15 14 17 16 13 11 9 11 10 11 12 11 13 13 14 14 14 13 11 11 11 9 7 12 20 22 23 22 24
48 33 18 10 27 15 37 9 6 5 26 16 13 13 12 15 19 15 16 18 18 17 16 12 11 15 15 13 14 21 12 13 15 15 18 11 17 12 8 16 20 21 23 24 25
39 18 8 5 21 33 30 5 7 24 41 12 12 12 12 15 15 16 15 19 19 14 13 14 17 16 15 16 13 15 16 18 14 12 14 11 11 9 9 18 22 19 20 22 22
25 12 4 9 6 11 4 5 26 32 37 14 10 12 12 12 13 14 14 14 13 14 12 13 12 11 19 14 12 12 15 11 9 10 15 8 9 7 6 7 13 18 20 23 24
17 6 3 9 42 5 4 49 28 37 14 13 12 11 12 12 11 13 12 13 12 14 11 9 8 17 18 13 8 9 10 15 14 14 11 9 11 10 7 8 14 18 22 26 26
9 3 3 3 5 3 13 38 42 17 14 11 10 11 12 12 10 10 11 11 12 11 10 10 14 17 12 11 13 12 11 17 22 19 17 11 12 9 10 20 21 22 24 26 27
4 3 4 4 3 4 50 55 38 14 11 11 9 11 12 11 11 9 13 14 14 12 15 13 11 8 6 7 10 11 14 12 17 16 20 14 11 7 14 21 32 35 30 30 24
18 10 43 5 4 10 42 35 21 17 14 13 11 12 10 11 10 10 11 15 15 14 12 14 19 11 8 12 10 12 10 16 14 24 25 15 15 12 17 18 17 23 18 18 18
20 35 43 4 6 40 50 25 19 18 16 16 12 13 10 12 10 10 12 18 16 14 15 15 19 17 13 12 12 11 12 13 17 22 33 36 23 14 21 18 18 17 16 16 17
37 33 39 4 28 20 34 20 22 19 20 16 16 13 14 13 13 12 13 20 20 19 19 20 28 27 19 12 10 12 15 21 31 33 26 30 35 17 18 16 15 16 15 17 22
34 42 19 16 29 28 29 24 19 19 17 16 16 16 15 16 16 17 18 28 25 20 36 27 21 24 12 14 14 19 16 16 17 22 29 40 33 14 15 15 14 15 18 22 22
31 55 33 37 31 32 31 27 25 24 19 19 18 18 19 19 18 20 21 32 32 27 34 30 25 29 33 26 21 23 18 16 18 27 26 26 24 19 17 18 16 16 16 19 20
40 47 32 29 24 25 26 22 25 27 22 21 21 18 19 22 20 23 19 28 31 35 30 30 40 35 29 24 24 23 20 17 18 18 24 22 21 18 18 20 18 17 16 16 22
52 36 38 34 18 20 30 22 21 20 21 22 21 18 18 21 20 22 21 24 28 26 29 28 42 39 40 27 20 23 23 23 21 19 19 19 21 17 16 16 16 16 17 17 36
46 43 66 37 32 30 30 22 20 22 34 28 21 22 24 33 29 34 34 34 30 30 31 33 40 47 48 28 32 40 25 23 22 20 21 27 25 21 26 38 48 27 22 30 40
Wind_Speed
2 3 4 5 6 7 8 9 10 10 11 12 12 12 10 6 1 5 3 8 8 8 12 17 13 9 10 8 9 11 9 11 11 17 10 14 8 11 13 13 16 14 8 3 8
3 3 3 4 5 6 7 8 9 10 10 11 11 11 11 8 4 5 3 5 7 9 12 14 14 13 12 8 8 5 10 13 14 12 13 17 19 20 19 24 13 18 8 12 10
4 3 3 3 4 5 6 7 8 9 10 11 12 11 11 10 7 4 4 5 7 10 13 14 14 14 15 15 10 8 11 18 15 13 14 14 18 21 20 16 20 13 16 14 15
5 3 3 3 4 6 7 8 9 10 11 13 13 13 10 8 4 3 6 9 9 12 14 12 14 14 13 12 15 7 15 17 20 15 15 15 20 17 20 20 12 12 13 15 17
5 4 3 4 6 7 8 9 10 11 13 14 14 15 11 8 7 8 11 10 9 8 9 11 14 14 11 18 20 16 15 20 20 23 22 23 13 15 24 17 6 10 15 18 19
7 6 4 5 5 7 8 10 11 13 15 15 15 12 10 10 4 7 9 10 9 10 11 11 11 14 13 15 13 19 19 20 24 26 27 15 8 17 26 20 5 7 15 20 19
9 7 6 5 5 7 9 11 13 14 14 14 13 11 7 5 5 7 10 11 10 10 13 13 13 11 17 19 15 20 19 20 23 28 3 8 14 19 21 18 22 15 20 20 24
11 9 8 7 7 7 9 11 13 14 13 12 11 8 5 4 10 7 10 9 6 11 10 12 12 16 18 19 20 19 19 15 16 1 4 9 14 16 18 28 30 25 14 13 24
11 10 9 9 10 10 12 13 14 14 13 11 6 6 2 6 7 10 9 10 11 10 8 9 10 13 16 14 13 17 12 17 16 27 22 20 24 20 25 24 27 28 25 11 12
11 11 10 10 11 12 12 12 13 13 10 6 5 4 2 6 13 8 7 13 13 12 13 13 11 11 13 10 9 14 15 14 19 19 19 20 21 18 25 27 25 25 18 9 17
10 9 8 8 8 9 10 10 8 1 2 3 8 9 9 12 10 6 12 14 12 12 12 8 6 11 10 9 11 13 15 18 18 18 18 17 20 21 25 27 23 13 17 16 15
9 8 7 6 7 8 7 4 3 5 7 6 5 7 5 8 9 1 13 11 12 9 16 6 11 11 9 12 14 15 17 17 17 17 18 20 24 22 22 5 11 10 12 10 10
9 8 7 6 5 5 6 5 4 3 6 6 3 5 3 6 5 9 11 11 8 10 6 9 10 12 8 10 11 12 13 16 19 20 19 21 20 20 21 8 15 13 8 8 12
10 8 6 3 1 4 3 5 4 1 4 7 4 2 1 3 3 5 8 8 6 7 9 7 8 7 9 10 11 10 17 18 18 18 15 16 19 18 18 14 13 12 7 9 10
11 8 4 4 4 1 5 4 2 3 4 4 6 1 1 3 3 4 6 7 7 9 6 6 3 7 9 12 13 15 14 16 19 19 20 16 11 12 10 15 11 8 7 7 9
10 7 3 2 2 2 2 2 4 3 4 4 2 1 5 2 2 3 2 4 7 9 10 11 2 2 7 12 12 10 14 19 18 14 12 17 15 11 11 15 1 11 6 7 10
10 8 7 7 7 2 3 3 3 3 2 6 2 3 0 3 1 5 2 8 9 7 5 11 4 10 7 12 13 18 14 7 4 5 9 21 14 13 18 12 10 11 11 11 13
10 8 8 6 6 5 5 4 5 2 6 4 2 3 3 1 4 1 3 3 13 11 9 6 1 5 7 7 8 14 6 4 6 9 15 19 9 9 15 20 15 10 9 12 16
9 7 4 5 7 8 3 4 5 7 5 2 3 6 6 4 5 3 4 6 6 10 7 5 3 10 8 5 5 6 7 10 9 14 12 11 23 17 19 17 21 21 19 17 22
8 6 4 4 8 10 3 3 6 3 3 2 6 1 4 6 4 3 3 4 3 6 8 3 6 8 4 7 12 11 7 6 5 5 10 11 25 11 17 21 23 11 27 35 36
9 5 6 6 10 4 4 6 5 2 1 2 4 1 4 1 6 2 5 5 1 5 7 6 3 5 13 13 11 7 8 8 10 9 11 12 13 7 26 26 19 31 32 36 36
8 4 4 12 6 8 7 6 1 6 4 3 4 3 4 1 3 2 2 5 4 5 5 7 4 6 17 18 6 7 6 5 5 13 12 12 18 23 21 24 31 33 39 36 34
9 6 5 18 6 8 2 5 4 6 7 5 3 2 1 3 2 3 1 6 3 5 6 8 3 6 2 8 6 3 12 17 17 14 19 15 13 13 25 25 30 30 28 34 33
6 3 4 10 13 8 10 10 7 3 5 3 4 3 4 4 2 1 3 4 2 4 6 3 4 8 8 13 16 20 19 18 17 12 16 20 25 21 23 22 24 26 31 25 32
3 4 7 5 11 12 12 10 12 6 4 7 5 8 7 4 4 4 5 7 7 6 1 3 5 10 14 18 19 21 21 20 18 17 17 22 26 21 20 21 30 31 30 28 19
6 3 4 1 16 13 7 8 12 8 9 8 7 7 6 5 4 1 2 2 5 8 3 4 6 12 16 19 15 17 22 20 15 15 17 21 24 19 30 34 31 27 30 31 9
7 3 1 5 4 8 8 9 10 14 2 6 8 4 5 7 8 7 4 7 8 5 7 6 4 7 5 12 18 10 9 15 18 16 18 19 21 26 24 32 41 38 28 15 8
Wind_Direction
276 313 330 347 354 0 3 5 7 7 6 6 6 3 353 345 340 11 344 359 360 4 354 341 301 318 307 302 281 281 274 268 320 2 359 354 349 311 307 284 303 290 222 292 48
274 304 327 343 352 357 0 1 1 0 359 359 1 3 355 331 310 49 24 346 344 348 353 353 347 332 315 274 275 276 291 295 352 342 336 336 335 325 309 303 306 301 54 27 355
263 280 303 321 333 339 343 344 346 346 349 352 355 357 353 335 309 50 22 328 333 342 338 322 319 310 297 299 282 310 312 319 323 344 343 324 310 314 318 309 312 8 351 344 323
251 256 274 301 317 327 331 333 333 336 340 344 347 350 356 351 357 7 333 315 318 347 343 334 338 322 326 303 309 307 298 303 310 335 312 296 300 312 304 297 15 349 339 325 311
239 245 270 301 316 323 327 326 326 327 333 337 338 340 354 322 57 341 339 331 345 324 327 329 319 328 311 325 314 303 313 325 316 306 294 287 298 315 306 305 326 332 327 311 308
230 238 262 298 315 322 325 324 323 323 325 330 331 335 339 314 4 340 331 325 317 306 308 311 322 316 299 291 318 303 302 299 296 287 278 289 349 302 284 277 294 313 316 313 310
231 240 255 280 307 321 324 322 319 316 318 326 333 339 318 304 343 331 327 314 307 301 294 292 296 297 300 299 290 311 290 289 284 278 342 353 302 281 325 331 315 322 310 314 306
237 249 260 274 295 314 321 326 327 326 322 327 339 336 295 305 310 316 336 330 303 310 294 291 283 274 275 278 282 279 274 276 278 241 249 253 300 302 323 321 310 299 274 293 308
245 258 267 278 293 306 314 319 320 322 326 326 344 347 316 347 0 320 325 319 315 301 297 290 279 271 280 275 281 272 317 337 336 335 332 325 311 318 318 302 300 306 305 300 306
245 256 269 279 291 298 302 313 322 314 318 340 8 278 344 322 328 344 321 310 301 297 287 247 254 255 248 283 322 341 332 319 313 322 319 315 306 310 310 303 295 285 296 33 39
241 253 267 284 299 309 316 351 315 332 349 329 314 299 309 312 310 296 328 311 290 265 264 311 283 285 12 353 330 321 313 307 300 309 319 310 309 304 298 284 283 62 57 45 34
239 255 269 290 310 320 340 38 353 308 313 253 278 287 312 324 297 308 342 309 326 292 314 262 257 35 2 330 320 308 296 299 313 324 330 312 296 287 282 308 80 71 71 53 32
239 252 269 290 317 343 7 2 334 355 268 210 234 284 297 321 333 345 349 323 301 289 310 302 306 15 350 320 310 302 306 328 324 316 303 291 298 309 305 149 106 88 77 59 45
243 250 260 270 343 47 311 350 1 97 272 146 172 113 273 295 232 347 350 329 276 331 334 292 24 357 336 312 343 320 335 321 313 311 306 316 296 300 303 127 110 98 79 48 41
242 239 236 194 135 9 270 338 57 85 275 41 98 23 299 286 323 87 341 322 296 323 297 324 322 354 309 358 337 302 330 301 299 295 293 297 275 299 356 62 106 108 90 60 39
239 230 192 181 206 229 281 148 99 219 250 115 94 127 199 39 30 314 344 311 276 281 269 269 319 199 13 320 292 283 294 314 289 263 265 279 348 324 343 349 3 135 91 53 25
232 225 205 164 179 208 159 88 205 253 171 128 90 255 182 76 92 329 7 40 32 331 342 324 305 107 26 332 337 2 335 315 317 312 299 348 331 297 317 335 18 53 56 34 9
223 218 212 194 192 166 142 222 242 170 237 71 116 214 257 3 114 318 277 180 50 348 299 317 244 34 26 1 331 311 297 302 303 326 311 313 261 304 350 62 56 47 28 4 349
203 199 205 197 175 164 171 224 214 309 32 184 178 245 160 175 292 262 51 29 43 17 359 335 249 4 304 10 333 336 303 354 298 286 281 279 291 330 33 53 27 358 339 335 329
169 142 209 202 172 157 229 240 244 11 346 306 250 288 298 121 225 233 130 59 56 34 355 28 295 309 354 334 263 223 295 321 307 302 297 305 304 290 21 355 346 319 339 336 337
149 144 224 209 161 152 227 232 207 143 261 331 300 294 295 156 303 181 70 105 31 14 333 315 258 289 298 281 300 323 274 318 318 291 287 299 280 334 335 333 331 328 330 327 323
159 192 212 170 174 202 228 234 241 169 196 165 297 304 244 141 211 286 330 55 45 344 335 37 313 290 279 281 318 20 308 287 282 299 291 297 283 296 299 328 333 330 326 332 338
171 151 171 166 221 214 126 144 240 176 185 169 165 312 280 209 235 268 118 83 32 349 24 3 280 308 340 113 133 257 339 319 302 298 285 285 274 315 319 322 325 316 332 329 322
203 138 136 206 255 279 176 194 187 269 153 198 137 185 196 200 217 173 228 139 84 46 68 351 275 278 277 298 299 298 304 300 292 282 286 275 294 311 315 315 319 325 324 317 318
153 198 179 189 227 239 177 192 183 173 192 189 183 216 200 206 221 214 253 136 198 166 250 253 275 298 293 295 298 293 291 294 293 292 289 300 295 305 317 327 322 314 304 319 323
173 189 198 299 207 214 188 206 193 173 166 195 238 194 223 226 242 23 313 228 262 152 250 259 286 308 294 286 287 315 300 289 286 306 305 307 301 311 314 303 295 313 318 317 353
224 231 352 128 214 198 194 218 215 143 15 346 201 177 198 41 55 39 354 317 298 276 287 291 300 324 279 332 317 285 10 329 313 321 316 306 318 331 344 358 346 333 337 342 351